Location: Newark
(46.9000°N, 28.3500°E)
Time: 21:31:57
(UTC+00:00)

Tiros 1 despin weight - All Passes

Search period start: 19 August 2019 00:00
Search period end: 29 August 2019 00:00
Orbit: 594 x 642 km, 48.2° (Epoch: 19 August)

Date Brightness Start Highest point End Pass type
(mag) Time Alt. Az. Time Alt. Az. Time Alt. Az.
19 Aug - 01:15:41 10° W 01:20:14 77° N 01:24:51 10° E visible
19 Aug - 02:57:21 10° WNW 03:01:58 89° S 03:06:37 10° ESE daylight
19 Aug - 04:39:05 10° W 04:43:18 35° SSW 04:47:32 10° SSE daylight
19 Aug - 22:10:20 10° SSW 22:14:05 27° SE 22:17:53 10° E visible
19 Aug - 23:50:45 10° WSW 23:55:15 79° SSE 23:59:50 10° ENE visible
20 Aug - 01:32:23 10° W 01:36:56 75° N 01:41:33 10° E visible
20 Aug - 03:14:00 10° WNW 03:18:34 68° SSW 03:23:11 10° ESE daylight
20 Aug - 04:56:07 10° W 04:59:38 22° SW 05:03:10 10° S daylight
20 Aug - 20:48:44 10° SSE 20:49:48 11° SE 20:50:51 10° ESE night (unlit)
20 Aug - 22:26:15 10° SW 22:30:28 43° SSE 22:34:46 10° E visible
21 Aug - 00:07:22 10° W 00:11:53 83° N 00:16:29 10° ENE visible
21 Aug - 01:49:04 10° WNW 01:53:37 82° N 01:58:16 10° E visible
21 Aug - 03:30:42 10° W 03:35:05 45° SSW 03:39:31 10° SE daylight
21 Aug - 05:14:04 10° WSW 05:15:51 12° SW 05:17:39 10° SSW daylight
21 Aug - 21:02:45 10° S 21:05:58 20° SE 21:09:14 10° E night (unlit)
21 Aug - 22:42:32 10° WSW 22:46:58 66° SSE 22:51:29 10° ENE visible
22 Aug - 00:24:04 10° W 00:28:34 75° N 00:33:10 10° E visible
22 Aug - 02:05:43 10° WNW 02:10:16 81° SSW 02:14:54 10° ESE visible
22 Aug - 03:47:33 10° W 03:51:30 29° SW 03:55:28 10° SSE daylight
22 Aug - 21:18:19 10° SSW 21:22:17 33° SSE 21:26:20 10° E night (unlit)
22 Aug - 22:59:05 10° WSW 23:03:34 88° SSE 23:08:08 10° ENE visible
23 Aug - 00:40:45 10° W 00:45:17 77° N 00:49:53 10° E visible
23 Aug - 02:22:22 10° WNW 02:26:51 58° SSW 02:31:23 10° SE visible
23 Aug - 04:04:49 10° W 04:07:47 17° SW 04:10:46 10° S daylight
23 Aug - 19:55:35 10° SSE 19:57:55 14° SE 20:00:16 10° ESE night (unlit)
23 Aug - 21:34:25 10° SW 21:38:44 52° SSE 21:43:07 10° ENE night (unlit)
23 Aug - 23:15:45 10° W 23:20:14 78° N 23:24:48 10° E visible
24 Aug - 00:57:25 10° WNW 01:01:57 88° NNE 01:06:34 10° ESE visible
24 Aug - 02:39:06 10° W 02:43:19 37° SSW 02:47:35 10° SE visible
24 Aug - 20:10:34 10° SSW 20:14:09 25° SE 20:17:48 10° E night (unlit)
24 Aug - 21:50:50 10° WSW 21:55:17 76° SSE 21:59:48 10° ENE night (unlit)
24 Aug - 23:32:26 10° W 23:36:56 74° N 23:41:30 10° E visible
25 Aug - 01:14:04 10° WNW 01:18:34 71° SSW 01:23:09 10° ESE visible
25 Aug - 02:56:05 10° W 02:59:40 23° SW 03:03:18 10° SSE daylight
25 Aug - 20:26:24 10° SW 20:30:31 40° SSE 20:34:44 10° E night (unlit)
25 Aug - 22:07:26 10° W 22:11:54 85° N 22:16:27 10° ENE visible
25 Aug - 23:49:07 10° W 23:53:37 80° N 23:58:12 10° E visible
26 Aug - 01:30:44 10° WNW 01:35:07 48° SSW 01:39:31 10° SE visible
26 Aug - 03:13:48 10° WSW 03:15:54 13° SW 03:18:03 10° SSW daylight
26 Aug - 19:03:04 10° S 19:06:04 18° SE 19:09:05 10° E night (unlit)
26 Aug - 20:42:38 10° WSW 20:47:01 62° SSE 20:51:27 10° ENE night (unlit)
26 Aug - 22:24:07 10° W 22:28:35 75° N 22:33:07 10° E night (unlit)
27 Aug - 00:05:46 10° WNW 00:10:17 84° SSW 00:14:51 10° ESE visible
27 Aug - 01:47:33 10° W 01:51:32 30° SW 01:55:32 10° SSE visible
27 Aug - 19:18:30 10° SSW 19:22:22 30° SE 19:26:16 10° E visible
27 Aug - 20:59:09 10° WSW 21:03:36 85° SSE 21:08:06 10° ENE night (unlit)
27 Aug - 22:40:49 10° W 22:45:17 75° N 22:49:50 10° E night (unlit)
28 Aug - 00:22:25 10° WNW 00:26:52 61° SSW 00:31:22 10° SE visible
28 Aug - 02:04:44 10° W 02:07:50 18° SW 02:10:57 10° S visible
28 Aug - 17:56:04 10° SSE 17:58:01 13° SE 17:59:58 10° ESE visible
28 Aug - 19:34:31 10° SW 19:38:47 48° SSE 19:43:06 10° ENE visible
28 Aug - 21:15:48 10° W 21:20:15 79° N 21:24:46 10° E night (unlit)
28 Aug - 22:57:28 10° WNW 23:01:58 86° NNE 23:06:31 10° ESE night (unlit)
